Time,TemperatureF,DewpointF,PressureIn,WindDirection,WindDirectionDegrees,WindSpeedMPH,WindSpeedGustMPH,Humidity,HourlyPrecipIn,Conditions,Clouds,dailyrainin,SoftwareType,DateUTC
2014-09-19 00:01:00,87.1,50.9,29.45,ENE,68,3.0,-999.0,29,-99.99,,,0.00,meteohub,2014-09-19 07:01:00,
2014-09-19 00:06:00,86.7,50.7,29.45,East,90,3.0,-999.0,29,-99.99,,,0.00,meteohub,2014-09-19 07:06:00,
2014-09-19 00:12:00,86.7,50.7,29.45,East,89,4.0,-999.0,29,-99.99,,,0.00,meteohub,2014-09-19 07:12:00,
2014-09-19 00:17:00,86.7,50.7,29.45,ENE,66,4.0,-999.0,29,-99.99,,,0.00,meteohub,2014-09-19 07:17:00,
2014-09-19 00:22:00,86.5,50.5,29.45,NE,53,4.0,4.0,29,0.00,,,0.00,meteohub,2014-09-19 07:22:00,
2014-09-19 00:27:00,86.4,50.4,29.45,East,84,5.0,5.0,29,0.00,,,0.00,meteohub,2014-09-19 07:27:00,
2014-09-19 00:32:00,86.4,50.4,29.45,ENE,70,4.0,5.0,29,0.00,,,0.00,meteohub,2014-09-19 07:32:00,
2014-09-19 00:37:00,86.7,50.7,29.45,ENE,70,4.0,5.0,29,0.00,,,0.00,meteohub,2014-09-19 07:37:00,
2014-09-19 00:42:00,86.7,50.7,29.45,ENE,69,3.0,6.0,29,0.00,,,0.00,meteohub,2014-09-19 07:42:00,
2014-09-19 00:47:00,86.7,50.7,29.45,ENE,72,3.0,6.0,29,-99.99,,,0.00,meteohub,2014-09-19 07:47:00,
2014-09-19 00:52:00,86.7,50.7,29.45,East,95,4.0,8.0,29,-99.99,,,0.00,meteohub,2014-09-19 07:52:00,
2014-09-19 00:57:00,86.7,50.7,29.45,East,90,3.0,8.0,29,-99.99,,,0.00,meteohub,2014-09-19 07:57:00,
2014-09-19 01:03:00,86.5,50.5,29.45,East,98,5.0,8.0,29,0.00,,,0.00,meteohub,2014-09-19 08:03:00,
2014-09-19 01:08:00,86.5,50.5,29.45,ESE,107,5.0,8.0,29,0.00,,,0.00,meteohub,2014-09-19 08:08:00,
2014-09-19 01:13:00,86.5,50.5,29.48,East,94,4.0,-999.0,29,-99.99,,,0.00,meteohub,2014-09-19 08:13:00,
2014-09-19 01:18:00,86.2,50.2,29.48,ENE,74,4.0,-999.0,29,-99.99,,,0.00,meteohub,2014-09-19 08:18:00,
2014-09-19 01:23:00,85.8,49.8,29.48,East,90,5.0,-999.0,29,-99.99,,,0.00,meteohub,2014-09-19 08:23:00,
2014-09-19 01:29:00,85.6,49.8,29.45,ESE,120,5.0,-999.0,29,-99.99,,,0.00,meteohub,2014-09-19 08:29:00,
2014-09-19 01:34:00,85.5,49.6,29.45,ENE,78,5.0,-999.0,29,0.00,,,0.00,meteohub,2014-09-19 08:34:00,
2014-09-19 01:39:00,85.3,49.5,29.45,ENE,72,4.0,-999.0,29,0.00,,,0.00,meteohub,2014-09-19 08:39:00,
2014-09-19 01:44:00,85.1,49.3,29.48,ESE,103,5.0,-999.0,29,0.00,,,0.00,meteohub,2014-09-19 08:44:00,
2014-09-19 01:49:00,85.1,49.3,29.48,ESE,123,3.0,-999.0,29,-99.99,,,0.00,meteohub,2014-09-19 08:49:00,
2014-09-19 01:54:00,84.7,48.9,29.48,East,96,4.0,-999.0,29,-99.99,,,0.00,meteohub,2014-09-19 08:54:00,
2014-09-19 01:59:00,84.6,48.7,29.48,East,89,4.0,-999.0,29,-99.99,,,0.00,meteohub,2014-09-19 08:59:00,
2014-09-19 02:05:00,84.4,48.7,29.48,ENE,75,4.0,-999.0,29,-99.99,,,0.00,meteohub,2014-09-19 09:05:00,
2014-09-19 02:10:00,84.6,48.7,29.48,East,82,5.0,-999.0,29,-99.99,,,0.00,meteohub,2014-09-19 09:10:00,
2014-09-19 02:15:00,84.7,48.9,29.48,East,88,4.0,-999.0,29,-99.99,,,0.00,meteohub,2014-09-19 09:15:00,
2014-09-19 02:20:00,84.6,48.7,29.48,East,96,5.0,-999.0,29,-99.99,,,0.00,meteohub,2014-09-19 09:20:00,
2014-09-19 02:25:00,84.4,48.7,29.48,ESE,102,5.0,-999.0,29,-99.99,,,0.00,meteohub,2014-09-19 09:25:00,
2014-09-19 02:30:00,84.4,48.7,29.48,East,92,5.0,-999.0,29,-99.99,,,0.00,meteohub,2014-09-19 09:30:00,
2014-09-19 02:35:00,84.4,48.7,29.48,East,91,4.0,-999.0,29,-99.99,,,0.00,meteohub,2014-09-19 09:35:00,
2014-09-19 02:41:00,84.0,48.4,29.48,ENE,70,3.0,-999.0,29,-99.99,,,0.00,meteohub,2014-09-19 09:41:00,
2014-09-19 02:46:00,84.0,48.4,29.48,East,99,4.0,-999.0,29,-99.99,,,0.00,meteohub,2014-09-19 09:46:00,
2014-09-19 02:51:00,83.7,48.0,29.48,ESE,102,4.0,-999.0,29,-99.99,,,0.00,meteohub,2014-09-19 09:51:00,
2014-09-19 02:56:00,83.7,48.0,29.48,East,91,6.0,-999.0,29,-99.99,,,0.00,meteohub,2014-09-19 09:56:00,
2014-09-19 03:01:00,83.3,47.7,29.48,ESE,116,5.0,-999.0,29,-99.99,,,0.00,meteohub,2014-09-19 10:01:00,
2014-09-19 03:06:00,83.5,47.8,29.48,East,93,5.0,-999.0,29,-99.99,,,0.00,meteohub,2014-09-19 10:06:00,
2014-09-19 03:11:00,83.3,47.7,29.48,SE,124,4.0,-999.0,29,-99.99,,,0.00,meteohub,2014-09-19 10:11:00,
2014-09-19 03:17:00,83.1,47.7,29.48,ENE,77,4.0,-999.0,29,-99.99,,,0.00,meteohub,2014-09-19 10:17:00,
2014-09-19 03:22:00,83.1,47.7,29.48,East,101,5.0,-999.0,29,-99.99,,,0.00,meteohub,2014-09-19 10:22:00,
2014-09-19 03:27:00,82.9,47.5,29.48,East,94,4.0,-999.0,29,-99.99,,,0.00,meteohub,2014-09-19 10:27:00,
2014-09-19 03:32:00,82.8,47.3,29.48,ENE,65,3.0,-999.0,29,-99.99,,,0.00,meteohub,2014-09-19 10:32:00,
2014-09-19 03:37:00,82.8,47.3,29.48,East,98,5.0,-999.0,29,-99.99,,,0.00,meteohub,2014-09-19 10:37:00,
2014-09-19 03:42:00,82.4,46.9,29.48,ESE,108,4.0,-999.0,29,-99.99,,,0.00,meteohub,2014-09-19 10:42:00,
2014-09-19 03:47:00,82.0,47.5,29.48,East,87,4.0,-999.0,30,-99.99,,,0.00,meteohub,2014-09-19 10:47:00,
2014-09-19 03:52:00,81.9,47.3,29.48,ESE,103,6.0,-999.0,30,-99.99,,,0.00,meteohub,2014-09-19 10:52:00,
2014-09-19 03:57:00,82.0,47.5,29.48,ENE,72,4.0,-999.0,30,-99.99,,,0.00,meteohub,2014-09-19 10:57:00,
2014-09-19 04:02:00,82.2,47.7,29.48,East,89,6.0,-999.0,30,-99.99,,,0.00,meteohub,2014-09-19 11:02:00,
2014-09-19 04:07:00,82.0,47.5,29.48,East,90,6.0,-999.0,30,-99.99,,,0.00,meteohub,2014-09-19 11:07:00,
2014-09-19 04:12:00,82.0,47.5,29.48,ENE,73,7.0,-999.0,30,-99.99,,,0.00,meteohub,2014-09-19 11:12:00,
2014-09-19 04:17:00,81.9,47.3,29.48,ENE,74,6.0,-999.0,30,-99.99,,,0.00,meteohub,2014-09-19 11:17:00,
2014-09-19 04:22:00,81.7,47.3,29.48,East,98,4.0,-999.0,30,-99.99,,,0.00,meteohub,2014-09-19 11:22:00,
2014-09-19 04:28:00,81.7,47.3,29.48,ENE,78,6.0,-999.0,30,-99.99,,,0.00,meteohub,2014-09-19 11:28:00,
2014-09-19 04:33:00,81.5,47.1,29.48,East,84,6.0,-999.0,30,-99.99,,,0.00,meteohub,2014-09-19 11:33:00,
2014-09-19 04:38:00,81.3,46.9,29.48,ENE,62,5.0,-999.0,30,-99.99,,,0.00,meteohub,2014-09-19 11:38:00,
2014-09-19 04:43:00,81.3,46.9,29.48,East,89,5.0,-999.0,30,-99.99,,,0.00,meteohub,2014-09-19 11:43:00,
2014-09-19 04:48:00,81.5,47.1,29.48,East,93,4.0,-999.0,30,-99.99,,,0.00,meteohub,2014-09-19 11:48:00,
2014-09-19 04:53:00,81.5,47.1,29.48,ENE,78,6.0,-999.0,30,-99.99,,,0.00,meteohub,2014-09-19 11:53:00,
2014-09-19 04:58:00,81.5,47.1,29.48,East,96,4.0,-999.0,30,-99.99,,,0.00,meteohub,2014-09-19 11:58:00,
2014-09-19 05:04:00,81.3,46.9,29.48,East,90,4.0,-999.0,30,-99.99,,,0.00,meteohub,2014-09-19 12:04:00,
2014-09-19 05:09:00,81.1,46.8,29.48,East,82,4.0,-999.0,30,-99.99,,,0.00,meteohub,2014-09-19 12:09:00,
2014-09-19 05:14:00,81.1,46.8,29.48,ESE,118,5.0,-999.0,30,-99.99,,,0.00,meteohub,2014-09-19 12:14:00,
2014-09-19 05:19:00,81.3,46.9,29.48,ESE,119,4.0,-999.0,30,-99.99,,,0.00,meteohub,2014-09-19 12:19:00,
2014-09-19 05:24:00,81.3,46.9,29.48,ESE,107,4.0,-999.0,30,-99.99,,,0.00,meteohub,2014-09-19 12:24:00,